GFSNIL_925_temp_021.txt.gz
Temp
22 22 23 23 22 22 22 21 21 22 21 21 20 20 19 18 18 18 18 18 18 18
22 22 23 23 23 23 22 21 22 22 21 20 20 20 18 19 19 19 18 18 18 18
22 23 23 22 23 22 23 22 21 21 20 20 19 20 19 19 18 18 18 18 18 18
22 21 23 23 23 23 22 22 21 21 20 19 19 19 19 18 18 18 18 18 17 18
21 22 24 23 23 23 22 21 21 21 20 20 19 19 18 18 18 18 18 18 18 18
20 22 24 24 24 21 21 21 21 20 20 20 19 19 19 19 18 18 19 18 18 18
19 21 23 22 23 21 23 20 22 21 21 20 20 20 20 19 19 19 18 18 18 18
19 21 20 21 21 22 22 21 21 21 20 20 20 19 20 19 19 18 19 19 18 18
18 20 19 19 19 21 21 20 20 21 20 20 20 19 20 20 19 19 19 19 19 18
18 19 19 19 18 18 19 18 18 19 19 18 19 20 21 20 19 19 19 18 18 19
19 19 19 18 17 17 17 17 18 18 18 18 19 21 20 20 20 19 18 18 18 17
19 19 18 18 17 18 17 18 18 18 18 18 19 18 19 17 17 17 18 18 16 17
19 19 18 18 18 17 17 17 18 18 17 20 21 20 20 20 17 15 15 16 16 16
18 18 18 18 17 17 17 17 17 18 19 19 18 19 20 19 18 15 14 14 16 15

GFSNIL_925_temp_024.txt.gz
Temp
24 25 25 25 26 26 26 25 24 21 22 22 21 21 20 21 21 21 20 20 20 21
24 24 26 25 24 25 25 25 23 22 21 21 21 21 20 21 21 21 20 21 20 20
25 24 25 24 23 24 23 23 22 21 21 21 20 20 20 21 21 20 21 21 21 20
26 25 24 24 23 23 21 21 21 21 21 21 20 20 20 20 21 20 20 20 20 20
26 25 23 23 22 22 21 22 22 21 22 21 20 20 20 20 21 20 20 20 20 20
26 24 23 23 22 22 23 21 22 22 22 20 20 20 20 20 20 20 20 20 20 21
25 23 23 23 21 23 22 22 22 23 24 21 19 20 20 20 20 20 20 20 20 20
25 23 22 23 21 23 22 22 23 21 21 19 19 21 20 20 20 20 20 20 20 21
24 22 23 22 21 21 21 22 20 19 19 20 21 21 20 20 21 20 20 21 21 21
24 22 22 22 21 20 20 21 20 19 19 20 20 20 20 20 20 21 20 19 19 19
23 22 22 22 21 20 20 20 20 20 19 20 20 20 20 20 19 19 18 18 18 17
23 22 22 21 21 21 20 20 19 20 20 19 20 20 19 19 18 18 18 19 18 17
23 22 22 21 21 20 20 19 20 20 20 19 20 20 19 18 18 18 18 19 18 17
23 22 21 21 20 20 19 20 19 20 20 20 19 20 18 18 18 18 18 17 16 16

GFSNIL_925_temp_030.txt.gz
Temp
26 26 27 27 27 28 28 28 26 25 24 23 23 23 22 22 22 22 22 21 21 22
25 26 26 27 28 27 28 28 27 25 24 23 22 22 22 22 22 22 22 22 22 21
26 25 26 27 27 27 27 28 25 25 24 23 22 22 22 22 22 22 22 22 22 22
26 26 25 26 27 27 27 27 25 24 24 22 22 22 22 22 22 22 22 22 22 21
26 26 26 26 27 27 26 26 25 24 23 23 22 22 21 22 22 22 21 21 21 21
27 26 26 25 26 26 26 25 25 24 23 22 22 22 21 21 21 22 22 21 21 21
27 27 26 26 25 26 25 25 24 23 23 22 22 21 21 20 21 22 22 21 21 21
28 27 27 26 26 26 25 24 23 22 22 22 22 21 21 21 21 21 21 21 21 21
28 27 27 26 26 25 25 23 23 22 22 22 21 22 22 21 21 21 21 21 21 21
29 28 27 26 26 25 24 23 22 22 22 21 21 22 22 22 21 21 21 21 21 21
29 28 27 26 25 25 24 23 22 22 22 21 21 21 22 22 21 21 21 21 21 21
29 27 26 25 25 24 24 22 22 22 21 21 21 21 21 21 21 21 21 21 21 20
28 27 25 24 24 24 23 22 22 21 22 21 21 21 20 20 21 20 20 20 20 20
27 26 25 24 24 23 23 22 21 21 21 21 21 20 20 20 20 19 19 19 19 18

GFSNIL_925_temp_033.txt.gz
Temp
26 26 27 27 26 26 26 26 26 25 25 24 24 23 23 23 22 22 22 22 22 22
27 26 26 27 27 27 27 27 26 25 25 24 24 23 23 22 22 22 22 22 22 22
26 26 26 26 26 27 27 27 26 25 25 24 24 23 22 22 22 22 21 21 22 22
24 25 25 26 26 27 27 27 27 26 25 24 23 23 22 22 22 21 22 22 21 21
25 24 24 25 25 26 27 27 26 26 25 24 23 23 22 22 22 22 21 21 21 21
25 24 24 24 25 26 26 27 26 26 25 25 24 23 22 22 22 22 22 22 21 21
25 25 25 24 24 26 26 26 26 25 25 24 23 23 22 22 22 22 21 21 21 21
25 25 25 25 24 25 25 26 25 24 24 23 23 22 22 22 22 21 21 21 21 21
26 25 25 25 24 24 24 25 24 23 23 22 22 21 22 22 21 21 21 21 21 21
26 26 25 25 24 24 24 24 23 23 23 22 22 21 22 21 21 21 21 21 21 21
27 26 25 25 24 24 24 24 23 22 22 22 21 21 21 21 21 21 21 21 21 21
27 26 26 25 25 24 23 23 22 22 22 21 21 21 21 22 21 21 21 21 21 21
27 26 25 25 24 24 24 23 22 22 22 22 21 21 21 21 21 21 21 21 21 21
27 26 25 24 24 24 23 23 23 22 22 22 21 21 21 20 20 20 20 20 20 20